Location: ??????
(56.0120°N, 39.1740°E)
Time: 18:33:59
(UTC+00:00)

Helios 1B rocket - Pass Details

Date: 14 April 2026
Orbit: 461 x 467 km, 98.2° (Epoch: 19 May)

Event Time Altitude Azimuth Distance (km) Brightness Sun altitude
Exits shadow 19:57:39 65° 276° (W) 523 2.2 -22.0°
Drops below altitude 10° 20:01:00 10° 340° (NNW) 1,647 5.9 -22.1°
Sets 20:03:05 0° 343° (NNW) 2,531 7.2 -22.3°
